Track LEMUR-2-SUSURRUS now! 10-day predictions LEMUR-2-SUSURRUS is classified as:
1 46502U 20068S 22143.56569931 .00013527 00000-0 94845-3 0 9990 2 46502 97.7214 84.1217 0013376 27.0893 333.1121 15.05244664 90360